Location: Bottenau
(48.5138°N, 8.0462°E)
Time: 21:14:03
(UTC+00:00)

Cosmos 2333 - Pass Details

Date: 18 April 2021
Orbit: 830 x 866 km, 70.9° (Epoch: 17 May)

Event Time Altitude Azimuth Distance (km) Brightness Sun altitude
Rises 18:58:18 0° 331° (NNW) 3,459 8.4 -6.2°
Reaches altitude 10° 19:00:46 10° 331° (NNW) 2,516 7.6 -6.6°
Maximum altitude 19:06:35 86° 245° (WSW) 870 4.3 -7.4°
Drops below altitude 10° 19:12:19 10° 156° (SSE) 2,483 6.2 -8.3°
Enters shadow 19:14:01 - 156° (SSE) 3,134 6.7 -8.5°
